Terminal Aerodrome Forecast
Issued by NWS Mt. Holly, NJ

Home | Current Version | Previous Version | Text Only | Print | Product List | Glossary On
Versions: 1 2 3 4 5 6 7 8 9 10 11 12 13 14 15 16 17 18 19 20 21 22 23 24 25 26 27 28 29 30 31 32 33 34 35 36 37 38 39 40 41 42 43 44 45 46 47 48 49 50
000
FTAK31 PANC 280159 AAA
TAFABE
TAF AMD
PABE 280159Z 2802/2824 32025G35KT 2SM -SHSN BLSN BKN020
      TEMPO 2802/2803 1/4SM +SHSN BLSN VV010
     FM280300 32022G32KT P6SM VCSH BKN020
     FM280700 32015G25KT P6SM SCT020 BKN035
     FM281200 32014KT P6SM BKN035
     FM282000 35018G28KT P6SM SCT040=

USA.gov is the U.S. government's official web portal to all federal, state and local government web resources and services.